LILACSAT-1 (LO-90) (42725 NORAD) Tracking and Keplerian Element Data

This shows tracking and keplerian element data for the satellite.

Feedback or suggestion? Click here.




ElementValue
Catalog42725
NameLILACSAT-1 (LO-90)
Epoch Orbit10464
Epoch Day82.054916
Epoch Year2019
RAAN351.0227
Inclination51.6239
Eccentricity0.0006872
Argument of Perigee212.3333
Mean Anonmoly147.7265
Mean Motion16.15781603
Decay Rate0.00781568
L11 42725U 98067ME 19082.05491600 .00781568 38577-3 54211-3 0 9999
L22 42725 51.6239 351.0227 0006872 212.3333 147.7265 16.15781603104643

Live tracking and technical data element details for LILACSAT-1 (LO-90) (NORAD 42725). LILACSAT-1 (LO-90) can be tracked NOW for your location showing map with azimuth and elevation plus other details from your city location.

Track the satellite on the map from your city or location and see movement details for azimuth, elevation, latitude, longitude, range, height, and movement on the map or in text.







IsCatalogInMostPopularTable: catalog: 42725, numindb: 239
Update: records affected: 1



GetName: 42725 LILACSAT-1 (LO-90)

Hit Count: updated at: Sun, 24 Mar 2019 08:38:52 GMT